星链-3268 (STARLINK-3268 )

导读 | 星芒AI

STARLINK-3268 是 SpaceX 星链计划中的一颗低轨通信卫星,属于星链第三代组网卫星。该卫星于2024年发射,旨在增强全球互联网覆盖,提供低延迟、高速度的网络服务。它运行在约550公里高的近地轨道,采用先进推进系统和激光通信技术,与其他星链卫星协同工作,提升网络稳定性和传输效率。作为星链星座的重要组成部分,STARLINK-3268 支持偏远地区互联网接入,助力全球数字化发展。

基本信息
目录编号:
50190
目录名称:
STARLINK-3268
国际标识:
2021-125AL
轨道中心:
EARTH
卫星名称:
星链-3268
卫星全名:
星链-3268 (STARLINK-3268 )
卫星状态:
在轨 (已飞行1417 天)
发射日期:
2021-12-18 UTC
国别 :
美国 (US)
星等 :
--
轨道信息
数据来源 国际轨道数据 AOE轨道数据
星历时间 2025-11-03T23:34:14+0800
19小时前
查看轨道信息
2025-10-29T03:00:00+0800
6天前
查看轨道信息
半长轴 6917.846km 6917.89km
偏心率 0.0001316 0.0001074
轨道倾角 53.215° 53.213°
近地点辐角 81.258° 90.593°
升交点赤经 84.938° 111.234°
平近点角 278.856° 117.373°
近地点 538.8km 539.012km
远地点 540.622km 540.498km
周期 95.437分钟 95.438分钟
每日圈数 15.088514 15.088369
详细信息
固有亮度:
5
最大亮度:
2.5
卫星平台:
Starlink v1.5
覆盖范围:
全球
运营商:
太空探索技术公司
运营商所在国:
美国
制造商(研发单位):
太空探索技术公司
制造商所在国:
美国
使用方式:
暂无
卫星简介
星链(Starlink)计划是由太空探索技术公司(SpaceX)提出的一个巨型低轨卫星互联网星座项目,计划在2019年至2024年间在太空搭建由约1.2万颗卫星组成的“星链”网络,其中1584颗将部署在地球上空550千米处的近地轨道,并从2020年开始工作。该卫星仍在工作。
2D轨道图
3D轨道图
轨道高度分析图
轨道倾角分析图
轨道综合分析图
查看轨道综合分析图